Hillsboro, OR

7:46 PM PST on February 12, 2016 (GMT -0800)
Portland-Hillsboro

Weather History for KHIO - February, 2013

Change the Weather History Date:

Wednesday, February 20, 2013

  Actual Average Record
Temperature  
Mean Temperature 39 °F 43 °F  
Max Temperature 47 °F 52 °F 62 °F (1995)
Min Temperature 30 °F 34 °F 18 °F (2006)
Degree Days  
Heating Degree Days 26 22  
Month to date heating degree days 452 458  
Since 1 July heating degree days 3194 3351  
Cooling Degree Days 0 0  
Month to date cooling degree days 0 0  
Year to date cooling degree days 0 0  
Moisture  
Dew Point 34 °F    
Average Humidity 83    
Maximum Humidity 100    
Minimum Humidity 65    
Precipitation  
Precipitation 0.01 in 0.13 in 1.71 in (1982)
Month to date precipitation 0.74 3.30  
Year to date precipitation 2.21 9.36  
Snow  
Snow 0.00 in - - ()
Month to date snowfall 0.0  
Since 1 July snowfall 0.0  
Snow Depth 0.00 in    
Sea Level Pressure  
Sea Level Pressure 30.06 in    
Wind  
Wind Speed 3 mph (South)    
Max Wind Speed 14 mph    
Max Gust Speed 19 mph    
Visibility 10 miles    
Events Rain    
T = Trace of Precipitation, MM = Missing Value Source: NWS Daily Summary

Daily Weather History Graph

Daily Weather History Graph

Search for Another Location

Airport or City:

Trip Planner

Search our weather history database for the weather conditions in past years. The results will help you decide how hot, cold, wet, or windy it might be!

Date:

Astronomy

Feb. 20, 2013 Rise Set
Actual Time 7:05 AM PST 5:46 PM PST
Civil Twilight 6:34 AM PST 6:16 PM PST
Nautical Twilight 6:00 AM PST 6:51 PM PST
Astronomical Twilight 5:26 AM PST 7:25 PM PST
Moon 1:03 PM PST (2/20) 3:38 AM PST (2/20)
Length of Visible Light 11h 41m
Length of Day
10h 41m
Waxing Gibbous, 77% of the Moon is Illuminated
Feb 20
Waxing Gibbous
Feb 25
Full
Mar 4
Last Quarter
Mar 11
New
Mar 19
First Quarter

Hourly Weather History & Observations

Time (PST) Temp. Windchill Dew Point Humidity Pressure Visibility Wind Dir Wind Speed Gust Speed Precip Events Conditions
12:53 AM 30.9 °F - 28.9 °F 92% 30.03 in 10.0 mi Calm Calm - N/A   Clear
1:53 AM 32.0 °F - 30.0 °F 92% 30.04 in 10.0 mi Calm Calm - N/A   Mostly Cloudy
2:53 AM 33.1 °F - 32.0 °F 96% 30.06 in 10.0 mi Calm Calm - N/A   Overcast
3:53 AM 34.0 °F - 32.0 °F 92% 30.07 in 10.0 mi Calm Calm - N/A   Overcast
4:53 AM 33.1 °F - 30.9 °F 92% 30.07 in 10.0 mi Calm Calm - N/A   Overcast
5:53 AM 32.0 °F - 30.0 °F 92% 30.08 in 10.0 mi Calm Calm - N/A   Mostly Cloudy
6:53 AM 33.1 °F - 32.0 °F 96% 30.09 in 10.0 mi Calm Calm - N/A   Overcast
7:53 AM 34.0 °F - 32.0 °F 92% 30.10 in 10.0 mi Calm Calm - N/A   Overcast
8:53 AM 35.1 °F - 33.1 °F 92% 30.10 in 10.0 mi Calm Calm - 0.00 in   Smoke
9:17 AM 37.0 °F - 35.1 °F 93% 30.09 in 10.0 mi Calm Calm - 0.00 in   Overcast
9:53 AM 37.0 °F 33.3 °F 35.1 °F 93% 30.10 in 10.0 mi West 4.6 mph - 0.00 in   Mostly Cloudy
10:53 AM 41.0 °F - 36.0 °F 82% 30.11 in 10.0 mi Calm Calm - N/A   Overcast
12:53 PM 46.0 °F 41.0 °F 36.0 °F 68% 30.07 in 10.0 mi South 10.4 mph - N/A   Overcast
1:53 PM 46.0 °F 41.4 °F 37.0 °F 71% 30.04 in 10.0 mi SSE 9.2 mph - N/A   Overcast
2:53 PM 46.0 °F 41.4 °F 36.0 °F 68% 30.02 in 10.0 mi SSW 9.2 mph - 0.00 in   Overcast
3:36 PM 44.1 °F 38.1 °F 37.9 °F 79% 30.01 in 10.0 mi South 11.5 mph - 0.01 in Rain Light Rain
3:53 PM 44.1 °F 40.1 °F 37.9 °F 79% 30.02 in 10.0 mi South 6.9 mph - 0.01 in   Overcast
4:53 PM 45.0 °F 40.1 °F 37.9 °F 76% 30.02 in 10.0 mi South 9.2 mph - 0.00 in   Overcast
5:53 PM 43.0 °F 38.8 °F 37.0 °F 80% 30.02 in 10.0 mi South 6.9 mph - 0.00 in   Mostly Cloudy
6:53 PM 42.1 °F 38.4 °F 37.0 °F 82% 30.04 in 10.0 mi South 5.8 mph - N/A   Overcast
7:53 PM 39.9 °F 35.8 °F 36.0 °F 86% 30.05 in 10.0 mi South 5.8 mph - 0.00 in   Mostly Cloudy
8:53 PM 37.0 °F - 34.0 °F 89% 30.06 in 10.0 mi Calm Calm - 0.00 in   Mostly Cloudy
10:53 PM 34.0 °F - 34.0 °F 100% 30.09 in 10.0 mi Calm Calm - N/A   Overcast
11:53 PM 35.1 °F - 34.0 °F 96% 30.09 in 10.0 mi Calm Calm - N/A   Overcast